Time,TemperatureF,DewpointF,PressureIn,WindDirection,WindDirectionDegrees,WindSpeedMPH,WindSpeedGustMPH,Humidity,HourlyPrecipIn,Conditions,Clouds,dailyrainin,SoftwareType,DateUTC
2013-03-22 00:05:00,58.9,48.7,29.88,ESE,120,4.0,17.0,69,0.00,,,0.00,Wunderground v.1.15,2013-03-22 05:05:00,
2013-03-22 00:11:00,59.0,49.6,29.88,SE,128,4.0,17.0,71,0.00,,,0.00,Wunderground v.1.15,2013-03-22 05:11:00,
2013-03-22 00:17:00,59.0,49.2,29.88,SE,126,5.0,17.0,70,0.00,,,0.00,Wunderground v.1.15,2013-03-22 05:17:00,
2013-03-22 00:22:00,59.0,49.2,29.88,SE,145,5.0,17.0,70,0.00,,,0.00,Wunderground v.1.15,2013-03-22 05:22:00,
2013-03-22 00:27:00,59.0,49.6,29.89,ESE,107,4.0,17.0,71,0.00,,,0.00,Wunderground v.1.15,2013-03-22 05:27:00,
2013-03-22 00:33:00,59.0,49.6,29.88,ESE,118,4.0,17.0,71,0.00,,,0.00,Wunderground v.1.15,2013-03-22 05:33:00,
2013-03-22 00:39:00,59.1,49.7,29.88,ESE,122,5.0,17.0,71,0.00,,,0.00,Wunderground v.1.15,2013-03-22 05:39:00,
2013-03-22 00:44:00,59.1,49.7,29.88,ESE,110,5.0,17.0,71,0.00,,,0.00,Wunderground v.1.15,2013-03-22 05:44:00,
2013-03-22 00:50:00,59.1,50.1,29.89,ESE,110,5.0,17.0,72,0.00,,,0.00,Wunderground v.1.15,2013-03-22 05:50:00,
2013-03-22 00:56:00,59.2,49.8,29.88,ESE,110,5.0,17.0,71,0.00,,,0.00,Wunderground v.1.15,2013-03-22 05:56:00,
2013-03-22 01:01:00,59.3,50.6,29.88,SE,130,5.0,17.0,73,0.00,,,0.00,Wunderground v.1.15,2013-03-22 06:01:00,
2013-03-22 01:06:00,59.3,50.6,29.88,SE,139,5.0,17.0,73,0.00,,,0.00,Wunderground v.1.15,2013-03-22 06:06:00,
2013-03-22 01:12:00,59.4,50.7,29.88,ESE,103,4.0,17.0,73,0.00,,,0.00,Wunderground v.1.15,2013-03-22 06:12:00,
2013-03-22 01:17:00,59.4,50.7,29.88,SSE,152,5.0,17.0,73,0.00,,,0.00,Wunderground v.1.15,2013-03-22 06:17:00,
2013-03-22 01:23:00,59.5,51.2,29.88,SE,131,5.0,17.0,74,0.00,,,0.00,Wunderground v.1.15,2013-03-22 06:23:00,
2013-03-22 01:29:00,59.6,51.3,29.88,SE,146,5.0,17.0,74,0.00,,,0.00,Wunderground v.1.15,2013-03-22 06:29:00,
2013-03-22 01:35:00,59.7,51.0,29.88,SE,125,4.0,17.0,73,0.00,,,0.00,Wunderground v.1.15,2013-03-22 06:35:00,
2013-03-22 01:41:00,59.7,51.4,29.88,ESE,113,5.0,6.0,74,0.00,,,0.00,Wunderground v.1.15,2013-03-22 06:41:00,
2013-03-22 01:46:00,59.7,51.4,29.88,SE,135,5.0,17.0,74,0.00,,,0.00,Wunderground v.1.15,2013-03-22 06:46:00,
2013-03-22 01:52:00,59.7,50.7,29.89,ESE,112,5.0,17.0,72,0.00,,,0.00,Wunderground v.1.15,2013-03-22 06:52:00,
2013-03-22 01:57:00,59.8,51.1,29.89,SE,126,5.0,17.0,73,0.00,,,0.00,Wunderground v.1.15,2013-03-22 06:57:00,
2013-03-22 02:02:00,59.6,50.9,29.89,East,95,5.0,17.0,73,0.00,,,0.00,Wunderground v.1.15,2013-03-22 07:02:00,
2013-03-22 02:08:00,59.6,51.3,29.89,SE,129,4.0,17.0,74,0.00,,,0.00,Wunderground v.1.15,2013-03-22 07:08:00,
2013-03-22 02:14:00,59.7,51.0,29.89,SE,129,4.0,17.0,73,0.00,,,0.00,Wunderground v.1.15,2013-03-22 07:14:00,
2013-03-22 02:20:00,59.8,51.1,29.89,SE,139,4.0,4.0,73,0.00,,,0.00,Wunderground v.1.15,2013-03-22 07:20:00,
2013-03-22 02:25:00,59.9,51.2,29.88,ESE,113,5.0,17.0,73,0.00,,,0.00,Wunderground v.1.15,2013-03-22 07:25:00,
2013-03-22 02:31:00,60.0,51.3,29.88,ESE,120,5.0,17.0,73,0.00,,,0.00,Wunderground v.1.15,2013-03-22 07:31:00,
2013-03-22 02:36:00,60.1,51.8,29.88,ESE,120,6.0,17.0,74,0.00,,,0.00,Wunderground v.1.15,2013-03-22 07:36:00,
2013-03-22 02:42:00,60.1,51.4,29.88,SE,129,5.0,17.0,73,0.00,,,0.00,Wunderground v.1.15,2013-03-22 07:42:00,
2013-03-22 02:48:00,60.3,52.0,29.88,ESE,108,4.0,17.0,74,0.00,,,0.00,Wunderground v.1.15,2013-03-22 07:48:00,
2013-03-22 02:54:00,60.2,51.5,29.88,SE,128,5.0,17.0,73,0.00,,,0.00,Wunderground v.1.15,2013-03-22 07:54:00,
2013-03-22 03:00:00,60.3,52.0,29.87,ESE,117,6.0,6.0,74,0.00,,,0.00,Wunderground v.1.15,2013-03-22 08:00:00,
2013-03-22 03:05:00,60.3,52.0,29.86,SE,138,7.0,17.0,74,0.00,,,0.00,Wunderground v.1.15,2013-03-22 08:05:00,
2013-03-22 03:11:00,60.3,52.3,29.84,SE,138,7.0,17.0,75,0.00,,,0.00,Wunderground v.1.15,2013-03-22 08:11:00,
2013-03-22 03:17:00,60.3,52.7,29.85,ESE,109,7.0,17.0,76,0.00,,,0.00,Wunderground v.1.15,2013-03-22 08:17:00,
2013-03-22 03:22:00,60.4,53.2,29.84,ESE,120,7.0,17.0,77,0.00,,,0.00,Wunderground v.1.15,2013-03-22 08:22:00,
2013-03-22 03:27:00,60.4,53.2,29.84,East,98,7.0,17.0,77,0.00,,,0.00,Wunderground v.1.15,2013-03-22 08:27:00,
2013-03-22 03:33:00,60.4,52.4,29.84,ESE,122,7.0,17.0,75,0.00,,,0.00,Wunderground v.1.15,2013-03-22 08:33:00,
2013-03-22 03:39:00,60.5,52.9,29.84,South,186,7.0,17.0,76,0.00,,,0.00,Wunderground v.1.15,2013-03-22 08:39:00,
2013-03-22 03:45:00,60.6,52.6,29.84,SE,129,8.0,17.0,75,0.00,,,0.00,Wunderground v.1.15,2013-03-22 08:45:00,
2013-03-22 03:51:00,60.7,53.1,29.84,SE,131,8.0,11.0,76,0.00,,,0.00,Wunderground v.1.15,2013-03-22 08:51:00,
2013-03-22 03:57:00,60.7,52.7,29.83,ESE,117,8.0,17.0,75,0.00,,,0.00,Wunderground v.1.15,2013-03-22 08:57:00,
2013-03-22 04:02:00,60.6,52.6,29.84,East,100,8.0,17.0,75,0.00,,,0.00,Wunderground v.1.15,2013-03-22 09:02:00,
2013-03-22 04:08:00,60.7,52.4,29.84,ESE,106,8.0,17.0,74,0.00,,,0.00,Wunderground v.1.15,2013-03-22 09:08:00,
2013-03-22 04:13:00,60.7,50.9,29.84,ESE,108,8.0,17.0,70,0.00,,,0.00,Wunderground v.1.15,2013-03-22 09:13:00,
2013-03-22 04:19:00,60.8,50.6,29.84,East,90,9.0,17.0,69,0.00,,,0.00,Wunderground v.1.15,2013-03-22 09:19:00,
2013-03-22 04:25:00,60.9,49.9,29.83,ESE,110,9.0,17.0,67,0.00,,,0.00,Wunderground v.1.15,2013-03-22 09:25:00,
2013-03-22 04:31:00,61.0,49.6,29.83,ESE,107,10.0,17.0,66,0.00,,,0.00,Wunderground v.1.15,2013-03-22 09:31:00,
2013-03-22 04:36:00,61.1,50.1,29.83,East,83,9.0,17.0,67,0.00,,,0.00,Wunderground v.1.15,2013-03-22 09:36:00,
2013-03-22 04:42:00,61.1,49.7,29.83,SE,125,9.0,17.0,66,0.00,,,0.00,Wunderground v.1.15,2013-03-22 09:42:00,
2013-03-22 04:48:00,61.2,49.3,29.82,ESE,103,9.0,17.0,65,0.00,,,0.00,Wunderground v.1.15,2013-03-22 09:48:00,
2013-03-22 04:53:00,61.3,49.0,29.82,East,100,10.0,17.0,64,0.00,,,0.00,Wunderground v.1.15,2013-03-22 09:53:00,
2013-03-22 04:59:00,61.3,49.0,29.82,ESE,119,9.0,17.0,64,0.00,,,0.00,Wunderground v.1.15,2013-03-22 09:59:00,
2013-03-22 05:04:00,61.4,49.1,29.82,ESE,115,10.0,17.0,64,0.00,,,0.00,Wunderground v.1.15,2013-03-22 10:04:00,
2013-03-22 05:10:00,61.4,49.9,29.82,ESE,110,10.0,10.0,66,0.00,,,0.00,Wunderground v.1.15,2013-03-22 10:10:00,
2013-03-22 05:16:00,61.4,50.3,29.82,SE,133,10.0,17.0,67,0.00,,,0.00,Wunderground v.1.15,2013-03-22 10:16:00,
2013-03-22 05:22:00,61.4,50.3,29.82,East,96,10.0,17.0,67,0.00,,,0.00,Wunderground v.1.15,2013-03-22 10:22:00,
2013-03-22 05:27:00,61.4,50.3,29.82,East,98,10.0,17.0,67,0.00,,,0.00,Wunderground v.1.15,2013-03-22 10:27:00,
2013-03-22 05:33:00,61.5,50.4,29.83,ESE,108,10.0,17.0,67,0.00,,,0.00,Wunderground v.1.15,2013-03-22 10:33:00,
2013-03-22 05:39:00,61.6,51.3,29.82,East,98,9.0,17.0,69,0.00,,,0.00,Wunderground v.1.15,2013-03-22 10:39:00,
2013-03-22 05:45:00,61.6,51.7,29.82,SSE,148,9.0,17.0,70,0.00,,,0.00,Wunderground v.1.15,2013-03-22 10:45:00,
2013-03-22 05:51:00,61.6,51.7,29.82,ESE,117,10.0,17.0,70,0.00,,,0.00,Wunderground v.1.15,2013-03-22 10:51:00,
2013-03-22 05:56:00,61.6,52.5,29.82,East,96,10.0,17.0,72,0.00,,,0.00,Wunderground v.1.15,2013-03-22 10:56:00,
2013-03-22 06:01:00,61.7,53.0,29.82,ESE,102,10.0,17.0,73,0.00,,,0.00,Wunderground v.1.15,2013-03-22 11:01:00,
2013-03-22 06:07:00,61.7,52.6,29.83,East,98,10.0,17.0,72,0.00,,,0.00,Wunderground v.1.15,2013-03-22 11:07:00,
2013-03-22 06:13:00,61.7,53.0,29.83,ESE,104,11.0,17.0,73,0.00,,,0.00,Wunderground v.1.15,2013-03-22 11:13:00,
2013-03-22 06:18:00,61.7,53.7,29.83,ESE,120,9.0,17.0,75,0.00,,,0.00,Wunderground v.1.15,2013-03-22 11:18:00,
2013-03-22 06:23:00,61.7,53.3,29.83,ESE,110,10.0,17.0,74,0.00,,,0.00,Wunderground v.1.15,2013-03-22 11:23:00,
2013-03-22 06:29:00,61.8,53.8,29.83,ESE,113,11.0,18.0,75,0.00,,,0.00,Wunderground v.1.15,2013-03-22 11:29:00,
2013-03-22 06:34:00,61.8,53.8,29.84,East,101,11.0,17.0,75,0.00,,,0.00,Wunderground v.1.15,2013-03-22 11:34:00,
2013-03-22 06:40:00,61.8,54.2,29.84,ESE,112,10.0,10.0,76,0.00,,,0.00,Wunderground v.1.15,2013-03-22 11:40:00,
2013-03-22 06:46:00,61.8,53.8,29.84,East,94,9.0,17.0,75,0.00,,,0.00,Wunderground v.1.15,2013-03-22 11:46:00,
2013-03-22 06:51:00,61.8,53.8,29.84,SE,125,10.0,17.0,75,0.00,,,0.00,Wunderground v.1.15,2013-03-22 11:51:00,
2013-03-22 06:57:00,61.9,53.9,29.84,ESE,103,12.0,17.0,75,0.00,,,0.00,Wunderground v.1.15,2013-03-22 11:57:00,
2013-03-22 07:02:00,62.0,54.3,29.84,ESE,105,12.0,17.0,76,0.00,,,0.00,Wunderground v.1.15,2013-03-22 12:02:00,
2013-03-22 07:08:00,62.0,54.0,29.84,ESE,107,12.0,17.0,75,0.00,,,0.00,Wunderground v.1.15,2013-03-22 12:08:00,
2013-03-22 07:13:00,62.1,53.7,29.84,SE,131,12.0,17.0,74,0.00,,,0.00,Wunderground v.1.15,2013-03-22 12:13:00,
2013-03-22 07:19:00,62.1,53.7,29.84,ESE,107,13.0,17.0,74,0.00,,,0.00,Wunderground v.1.15,2013-03-22 12:19:00,
2013-03-22 07:24:00,62.0,53.6,29.84,East,98,12.0,17.0,74,0.00,,,0.00,Wunderground v.1.15,2013-03-22 12:24:00,
2013-03-22 07:30:00,62.1,53.7,29.85,ESE,116,11.0,11.0,74,0.00,,,0.00,Wunderground v.1.15,2013-03-22 12:30:00,
2013-03-22 07:36:00,62.1,53.7,29.85,ESE,120,10.0,17.0,74,0.00,,,0.00,Wunderground v.1.15,2013-03-22 12:36:00,
2013-03-22 07:42:00,62.1,54.1,29.86,East,86,9.0,17.0,75,0.00,,,0.00,Wunderground v.1.15,2013-03-22 12:42:00,
2013-03-22 07:48:00,62.1,53.7,29.86,ENE,60,10.0,17.0,74,0.00,,,0.00,Wunderground v.1.15,2013-03-22 12:48:00,
2013-03-22 07:53:00,62.2,53.4,29.87,East,86,10.0,17.0,73,0.00,,,0.00,Wunderground v.1.15,2013-03-22 12:53:00,
2013-03-22 07:59:00,62.2,53.8,29.87,East,101,9.0,17.0,74,0.00,,,0.00,Wunderground v.1.15,2013-03-22 12:59:00,
2013-03-22 08:04:00,62.3,53.9,29.87,East,94,8.0,17.0,74,0.00,,,0.00,Wunderground v.1.15,2013-03-22 13:04:00,
2013-03-22 08:10:00,62.3,53.9,29.87,East,91,8.0,8.0,74,0.00,,,0.00,Wunderground v.1.15,2013-03-22 13:10:00,
2013-03-22 08:16:00,62.3,54.6,29.87,ESE,107,8.0,17.0,76,0.00,,,0.00,Wunderground v.1.15,2013-03-22 13:16:00,
2013-03-22 08:22:00,62.2,54.2,29.86,ESE,110,10.0,17.0,75,0.00,,,0.00,Wunderground v.1.15,2013-03-22 13:22:00,
2013-03-22 08:28:00,62.3,55.0,29.85,ESE,103,11.0,17.0,77,0.00,,,0.00,Wunderground v.1.15,2013-03-22 13:28:00,
2013-03-22 08:34:00,62.4,55.4,29.85,ESE,123,12.0,17.0,78,0.00,,,0.00,Wunderground v.1.15,2013-03-22 13:34:00,
2013-03-22 08:39:00,62.5,55.9,29.84,ESE,102,11.0,17.0,79,0.00,,,0.00,Wunderground v.1.15,2013-03-22 13:39:00,
2013-03-22 08:45:00,62.6,56.0,29.85,ESE,115,10.0,17.0,79,0.00,,,0.00,Wunderground v.1.15,2013-03-22 13:45:00,
2013-03-22 08:51:00,62.5,55.9,29.85,East,92,10.0,17.0,79,0.00,,,0.00,Wunderground v.1.15,2013-03-22 13:51:00,
2013-03-22 08:57:00,62.6,55.6,29.86,SE,137,10.0,17.0,78,0.00,,,0.00,Wunderground v.1.15,2013-03-22 13:57:00,
2013-03-22 09:02:00,62.7,55.7,29.86,SE,126,10.0,17.0,78,0.00,,,0.00,Wunderground v.1.15,2013-03-22 14:02:00,
2013-03-22 09:07:00,62.8,55.8,29.86,ESE,122,10.0,17.0,78,0.00,,,0.00,Wunderground v.1.15,2013-03-22 14:07:00,
2013-03-22 09:12:00,62.9,55.9,29.86,ESE,107,10.0,17.0,78,0.00,,,0.00,Wunderground v.1.15,2013-03-22 14:12:00,
2013-03-22 09:18:00,63.0,55.7,29.86,East,98,10.0,17.0,77,0.00,,,0.00,Wunderground v.1.15,2013-03-22 14:18:00,
2013-03-22 09:24:00,63.0,56.0,29.86,ESE,113,10.0,17.0,78,0.00,,,0.00,Wunderground v.1.15,2013-03-22 14:24:00,
2013-03-22 09:30:00,62.9,55.9,29.87,ESE,118,10.0,17.0,78,0.00,,,0.00,Wunderground v.1.15,2013-03-22 14:30:00,
2013-03-22 09:36:00,62.9,55.9,29.87,ESE,113,10.0,17.0,78,0.00,,,0.00,Wunderground v.1.15,2013-03-22 14:36:00,
2013-03-22 09:42:00,62.9,55.9,29.87,ESE,104,9.0,17.0,78,0.00,,,0.00,Wunderground v.1.15,2013-03-22 14:42:00,
2013-03-22 09:48:00,62.9,56.3,29.87,SE,128,8.0,17.0,79,0.00,,,0.00,Wunderground v.1.15,2013-03-22 14:48:00,
2013-03-22 09:53:00,63.0,56.0,29.87,ESE,106,8.0,17.0,78,0.00,,,0.00,Wunderground v.1.15,2013-03-22 14:53:00,
2013-03-22 09:59:00,63.2,56.6,29.87,SE,132,8.0,17.0,79,0.00,,,0.00,Wunderground v.1.15,2013-03-22 14:59:00,
2013-03-22 10:05:00,63.3,56.7,29.87,ESE,110,8.0,17.0,79,0.00,,,0.00,Wunderground v.1.15,2013-03-22 15:05:00,
2013-03-22 10:11:00,63.4,56.8,29.87,ESE,107,9.0,11.0,79,0.00,,,0.00,Wunderground v.1.15,2013-03-22 15:11:00,
2013-03-22 10:17:00,63.4,57.1,29.87,ESE,107,8.0,17.0,80,0.00,,,0.00,Wunderground v.1.15,2013-03-22 15:17:00,
2013-03-22 10:23:00,63.4,56.8,29.87,SE,142,8.0,17.0,79,0.00,,,0.00,Wunderground v.1.15,2013-03-22 15:23:00,
2013-03-22 10:28:00,63.3,57.4,29.87,ESE,122,9.0,17.0,81,0.00,,,0.00,Wunderground v.1.15,2013-03-22 15:28:00,
2013-03-22 10:33:00,63.4,57.5,29.87,SE,125,9.0,17.0,81,0.00,,,0.00,Wunderground v.1.15,2013-03-22 15:33:00,
2013-03-22 10:39:00,63.4,57.5,29.87,SE,131,9.0,17.0,81,0.00,,,0.00,Wunderground v.1.15,2013-03-22 15:39:00,
2013-03-22 10:44:00,63.5,57.6,29.87,SE,126,9.0,17.0,81,0.00,,,0.00,Wunderground v.1.15,2013-03-22 15:44:00,
2013-03-22 10:49:00,63.6,57.7,29.87,East,98,9.0,17.0,81,0.00,,,0.00,Wunderground v.1.15,2013-03-22 15:49:00,
2013-03-22 10:55:00,63.7,57.8,29.87,East,98,9.0,17.0,81,0.00,,,0.00,Wunderground v.1.15,2013-03-22 15:55:00,
2013-03-22 11:01:00,63.7,58.1,29.87,East,101,8.0,17.0,82,0.00,,,0.00,Wunderground v.1.15,2013-03-22 16:01:00,
2013-03-22 11:06:00,63.9,58.3,29.88,SE,138,8.0,17.0,82,0.00,,,0.00,Wunderground v.1.15,2013-03-22 16:06:00,
2013-03-22 11:12:00,64.0,58.4,29.88,East,98,8.0,17.0,82,0.00,,,0.00,Wunderground v.1.15,2013-03-22 16:12:00,
2013-03-22 11:17:00,63.9,58.3,29.87,ESE,117,8.0,17.0,82,0.00,,,0.00,Wunderground v.1.15,2013-03-22 16:17:00,
2013-03-22 11:23:00,63.8,58.5,29.88,East,92,8.0,17.0,83,0.00,,,0.00,Wunderground v.1.15,2013-03-22 16:23:00,
2013-03-22 11:29:00,63.8,58.5,29.88,East,90,7.0,17.0,83,0.00,,,0.00,Wunderground v.1.15,2013-03-22 16:29:00,
2013-03-22 11:34:00,63.8,58.9,29.88,East,89,7.0,17.0,84,0.00,,,0.00,Wunderground v.1.15,2013-03-22 16:34:00,
2013-03-22 11:40:00,63.8,58.9,29.88,ENE,78,6.0,17.0,84,0.00,,,0.00,Wunderground v.1.15,2013-03-22 16:40:00,
2013-03-22 11:46:00,63.8,58.9,29.88,ESE,104,6.0,17.0,84,0.00,,,0.00,Wunderground v.1.15,2013-03-22 16:46:00,
2013-03-22 11:51:00,63.7,58.8,29.88,ESE,104,7.0,10.0,84,0.00,,,0.00,Wunderground v.1.15,2013-03-22 16:51:00,
2013-03-22 11:57:00,63.5,58.9,29.88,East,89,7.0,17.0,85,0.00,,,0.00,Wunderground v.1.15,2013-03-22 16:57:00,
2013-03-22 12:03:00,63.3,59.0,29.88,ENE,76,6.0,17.0,86,0.00,,,0.00,Wunderground v.1.15,2013-03-22 17:03:00,
2013-03-22 12:09:00,63.2,58.9,29.88,East,80,6.0,17.0,86,0.00,,,0.00,Wunderground v.1.15,2013-03-22 17:09:00,
2013-03-22 12:15:00,63.2,58.9,29.88,ENE,71,7.0,17.0,86,0.00,,,0.00,Wunderground v.1.15,2013-03-22 17:15:00,
2013-03-22 12:21:00,63.2,58.9,29.88,SE,145,8.0,17.0,86,0.00,,,0.00,Wunderground v.1.15,2013-03-22 17:21:00,
2013-03-22 12:27:00,63.2,58.9,29.88,ENE,76,8.0,17.0,86,0.00,,,0.00,Wunderground v.1.15,2013-03-22 17:27:00,
2013-03-22 12:32:00,63.2,58.9,29.88,ESE,104,8.0,17.0,86,0.00,,,0.00,Wunderground v.1.15,2013-03-22 17:32:00,
2013-03-22 12:38:00,63.1,59.2,29.88,ENE,68,8.0,17.0,87,0.00,,,0.00,Wunderground v.1.15,2013-03-22 17:38:00,
2013-03-22 12:43:00,62.9,59.3,29.88,NE,53,8.0,17.0,88,0.00,,,0.00,Wunderground v.1.15,2013-03-22 17:43:00,
2013-03-22 12:48:00,62.8,59.2,29.88,East,94,8.0,17.0,88,0.00,,,0.00,Wunderground v.1.15,2013-03-22 17:48:00,
2013-03-22 12:53:00,62.8,59.2,29.87,East,82,9.0,17.0,88,0.00,,,0.00,Wunderground v.1.15,2013-03-22 17:53:00,
2013-03-22 12:59:00,63.2,59.6,29.86,East,94,9.0,17.0,88,0.00,,,0.00,Wunderground v.1.15,2013-03-22 17:59:00,
2013-03-22 13:04:00,63.9,60.0,29.86,East,88,9.0,17.0,87,0.00,,,0.00,Wunderground v.1.15,2013-03-22 18:04:00,
2013-03-22 13:10:00,64.7,60.1,29.85,NE,56,9.0,17.0,85,0.00,,,0.00,Wunderground v.1.15,2013-03-22 18:10:00,
2013-03-22 13:16:00,65.2,60.6,29.85,ESE,116,10.0,17.0,85,0.00,,,0.00,Wunderground v.1.15,2013-03-22 18:16:00,
2013-03-22 13:22:00,64.9,59.6,29.85,ENE,75,8.0,17.0,83,0.00,,,0.00,Wunderground v.1.15,2013-03-22 18:22:00,
2013-03-22 13:28:00,64.1,59.5,29.86,SE,126,7.0,17.0,85,0.00,,,0.00,Wunderground v.1.15,2013-03-22 18:28:00,
2013-03-22 13:33:00,63.2,59.6,29.85,East,96,7.0,17.0,88,1.19,,,0.10,Wunderground v.1.15,2013-03-22 18:33:00,
2013-03-22 13:39:00,62.2,59.5,29.85,East,101,8.0,17.0,91,0.13,,,0.11,Wunderground v.1.15,2013-03-22 18:39:00,
2013-03-22 13:45:00,62.1,59.7,29.85,East,84,7.0,17.0,92,0.06,,,0.11,Wunderground v.1.15,2013-03-22 18:45:00,
2013-03-22 13:51:00,62.2,60.2,29.85,East,98,7.0,17.0,93,0.04,,,0.11,Wunderground v.1.15,2013-03-22 18:51:00,
2013-03-22 13:56:00,62.4,60.0,29.84,SE,128,7.0,17.0,92,0.00,,,0.11,Wunderground v.1.15,2013-03-22 18:56:00,
2013-03-22 14:02:00,62.5,60.4,29.84,ESE,104,7.0,17.0,93,0.00,,,0.11,Wunderground v.1.15,2013-03-22 19:02:00,
2013-03-22 14:08:00,62.5,60.1,29.84,ENE,78,6.0,17.0,92,0.00,,,0.11,Wunderground v.1.15,2013-03-22 19:08:00,
2013-03-22 14:14:00,62.5,60.1,29.84,ENE,71,7.0,17.0,92,0.00,,,0.12,Wunderground v.1.15,2013-03-22 19:14:00,
2013-03-22 14:19:00,62.5,60.1,29.84,ENE,63,8.0,17.0,92,0.00,,,0.12,Wunderground v.1.15,2013-03-22 19:19:00,
2013-03-22 14:25:00,62.4,60.0,29.83,East,90,8.0,17.0,92,0.00,,,0.12,Wunderground v.1.15,2013-03-22 19:25:00,
2013-03-22 14:30:00,62.5,60.4,29.83,East,85,8.0,8.0,93,0.00,,,0.12,Wunderground v.1.15,2013-03-22 19:30:00,
2013-03-22 14:36:00,62.6,60.5,29.83,East,81,8.0,17.0,93,0.00,,,0.12,Wunderground v.1.15,2013-03-22 19:36:00,
2013-03-22 14:41:00,62.8,60.7,29.83,East,90,8.0,17.0,93,0.00,,,0.12,Wunderground v.1.15,2013-03-22 19:41:00,
2013-03-22 14:47:00,62.8,60.4,29.83,South,191,7.0,17.0,92,0.00,,,0.12,Wunderground v.1.15,2013-03-22 19:47:00,
2013-03-22 14:53:00,62.8,60.7,29.83,ESE,115,7.0,17.0,93,0.00,,,0.12,Wunderground v.1.15,2013-03-22 19:53:00,
2013-03-22 14:59:00,62.8,60.7,29.83,ENE,72,6.0,17.0,93,0.00,,,0.12,Wunderground v.1.15,2013-03-22 19:59:00,
2013-03-22 15:04:00,63.0,60.6,29.82,East,82,6.0,17.0,92,0.00,,,0.12,Wunderground v.1.15,2013-03-22 20:04:00,
2013-03-22 15:10:00,63.2,60.8,29.82,ENE,70,8.0,17.0,92,0.00,,,0.12,Wunderground v.1.15,2013-03-22 20:10:00,
2013-03-22 15:16:00,63.5,61.1,29.83,East,88,7.0,17.0,92,0.00,,,0.12,Wunderground v.1.15,2013-03-22 20:16:00,
2013-03-22 15:22:00,63.6,60.9,29.82,East,82,7.0,17.0,91,0.00,,,0.12,Wunderground v.1.15,2013-03-22 20:22:00,
2013-03-22 15:28:00,63.7,61.3,29.82,ESE,105,7.0,17.0,92,0.00,,,0.12,Wunderground v.1.15,2013-03-22 20:28:00,
2013-03-22 15:34:00,63.8,61.1,29.82,ENE,71,7.0,17.0,91,0.00,,,0.12,Wunderground v.1.15,2013-03-22 20:34:00,
2013-03-22 15:40:00,63.5,60.8,29.81,East,81,8.0,17.0,91,0.00,,,0.12,Wunderground v.1.15,2013-03-22 20:40:00,
2013-03-22 15:46:00,63.3,60.6,29.81,East,84,9.0,17.0,91,0.00,,,0.12,Wunderground v.1.15,2013-03-22 20:46:00,
2013-03-22 15:52:00,63.4,60.7,29.80,ESE,122,8.0,17.0,91,0.00,,,0.12,Wunderground v.1.15,2013-03-22 20:52:00,
2013-03-22 15:57:00,63.4,60.7,29.80,East,94,10.0,17.0,91,0.00,,,0.12,Wunderground v.1.15,2013-03-22 20:57:00,
2013-03-22 16:02:00,63.4,60.7,29.80,East,90,11.0,17.0,91,0.00,,,0.12,Wunderground v.1.15,2013-03-22 21:02:00,
2013-03-22 16:07:00,63.3,60.6,29.80,ENE,77,10.0,17.0,91,0.00,,,0.12,Wunderground v.1.15,2013-03-22 21:07:00,
2013-03-22 16:13:00,63.4,61.0,29.79,East,90,10.0,17.0,92,0.00,,,0.12,Wunderground v.1.15,2013-03-22 21:13:00,
2013-03-22 16:19:00,63.4,60.7,29.79,ESE,102,9.0,17.0,91,0.00,,,0.12,Wunderground v.1.15,2013-03-22 21:19:00,
2013-03-22 16:25:00,63.5,60.8,29.79,ESE,107,10.0,17.0,91,0.00,,,0.12,Wunderground v.1.15,2013-03-22 21:25:00,
2013-03-22 16:31:00,63.8,61.1,29.79,East,90,9.0,17.0,91,0.00,,,0.12,Wunderground v.1.15,2013-03-22 21:31:00,
2013-03-22 16:37:00,63.9,61.2,29.79,East,89,9.0,17.0,91,0.00,,,0.12,Wunderground v.1.15,2013-03-22 21:37:00,
2013-03-22 16:42:00,63.9,61.2,29.79,East,89,10.0,17.0,91,0.00,,,0.12,Wunderground v.1.15,2013-03-22 21:42:00,
2013-03-22 16:48:00,63.8,61.1,29.80,ENE,70,10.0,17.0,91,0.00,,,0.12,Wunderground v.1.15,2013-03-22 21:48:00,
2013-03-22 16:54:00,63.7,61.0,29.80,ENE,74,9.0,17.0,91,0.00,,,0.12,Wunderground v.1.15,2013-03-22 21:54:00,
2013-03-22 17:00:00,63.5,61.1,29.80,East,88,9.0,17.0,92,0.00,,,0.12,Wunderground v.1.15,2013-03-22 22:00:00,
2013-03-22 17:05:00,63.4,61.0,29.80,ENE,74,9.0,17.0,92,0.00,,,0.12,Wunderground v.1.15,2013-03-22 22:05:00,
2013-03-22 17:12:00,63.3,60.9,29.80,East,86,8.0,17.0,92,0.00,,,0.12,Wunderground v.1.15,2013-03-22 22:12:00,
2013-03-22 17:18:00,63.3,60.9,29.80,ENE,66,8.0,17.0,92,0.00,,,0.12,Wunderground v.1.15,2013-03-22 22:18:00,
2013-03-22 17:24:00,63.3,60.6,29.80,East,100,8.0,17.0,91,0.00,,,0.12,Wunderground v.1.15,2013-03-22 22:24:00,
2013-03-22 17:30:00,63.4,60.7,29.80,East,98,9.0,17.0,91,0.00,,,0.12,Wunderground v.1.15,2013-03-22 22:30:00,
2013-03-22 17:36:00,63.5,60.8,29.80,East,94,10.0,17.0,91,0.00,,,0.12,Wunderground v.1.15,2013-03-22 22:36:00,
2013-03-22 17:42:00,63.5,60.8,29.80,ESE,104,9.0,17.0,91,0.00,,,0.12,Wunderground v.1.15,2013-03-22 22:42:00,
2013-03-22 17:47:00,63.5,60.8,29.80,East,81,8.0,17.0,91,0.00,,,0.12,Wunderground v.1.15,2013-03-22 22:47:00,
2013-03-22 17:53:00,63.6,60.9,29.80,ENE,74,7.0,17.0,91,0.00,,,0.12,Wunderground v.1.15,2013-03-22 22:53:00,
2013-03-22 17:58:00,63.6,60.9,29.80,East,81,7.0,17.0,91,0.00,,,0.12,Wunderground v.1.15,2013-03-22 22:58:00,
2013-03-22 18:04:00,63.7,61.0,29.80,East,94,6.0,17.0,91,0.00,,,0.12,Wunderground v.1.15,2013-03-22 23:04:00,
2013-03-22 18:10:00,63.6,60.9,29.80,East,84,7.0,7.0,91,0.00,,,0.12,Wunderground v.1.15,2013-03-22 23:10:00,
2013-03-22 18:15:00,63.7,61.0,29.80,East,92,8.0,17.0,91,0.00,,,0.12,Wunderground v.1.15,2013-03-22 23:15:00,
2013-03-22 18:21:00,63.6,60.9,29.80,ENE,60,9.0,17.0,91,0.00,,,0.12,Wunderground v.1.15,2013-03-22 23:21:00,
2013-03-22 18:27:00,63.7,61.0,29.81,ENE,70,8.0,17.0,91,0.00,,,0.12,Wunderground v.1.15,2013-03-22 23:27:00,
2013-03-22 18:33:00,63.8,61.1,29.81,East,84,8.0,17.0,91,0.00,,,0.12,Wunderground v.1.15,2013-03-22 23:33:00,
2013-03-22 18:39:00,63.7,60.7,29.81,East,85,9.0,17.0,90,0.00,,,0.12,Wunderground v.1.15,2013-03-22 23:39:00,
2013-03-22 18:45:00,63.7,61.0,29.81,ENE,70,9.0,17.0,91,0.00,,,0.12,Wunderground v.1.15,2013-03-22 23:45:00,
2013-03-22 18:50:00,63.7,61.0,29.81,ESE,116,8.0,8.0,91,0.00,,,0.12,Wunderground v.1.15,2013-03-22 23:50:00,
2013-03-22 18:55:00,63.7,61.0,29.81,ENE,72,8.0,17.0,91,0.00,,,0.12,Wunderground v.1.15,2013-03-22 23:55:00,
2013-03-22 19:01:00,63.7,61.0,29.81,ENE,67,9.0,17.0,91,0.00,,,0.12,Wunderground v.1.15,2013-03-23 00:01:00,
2013-03-22 19:07:00,63.6,60.9,29.81,East,82,9.0,17.0,91,0.00,,,0.12,Wunderground v.1.15,2013-03-23 00:07:00,
2013-03-22 19:12:00,63.6,60.9,29.81,ESE,104,10.0,17.0,91,0.00,,,0.12,Wunderground v.1.15,2013-03-23 00:12:00,
2013-03-22 19:18:00,63.5,60.8,29.81,NE,46,10.0,17.0,91,0.00,,,0.12,Wunderground v.1.15,2013-03-23 00:18:00,
2013-03-22 19:24:00,63.5,60.8,29.81,NE,56,10.0,17.0,91,0.00,,,0.12,Wunderground v.1.15,2013-03-23 00:24:00,
2013-03-22 19:29:00,63.5,60.8,29.81,East,85,10.0,17.0,91,0.00,,,0.12,Wunderground v.1.15,2013-03-23 00:29:00,
2013-03-22 19:35:00,63.4,61.0,29.81,East,84,10.0,17.0,92,0.00,,,0.12,Wunderground v.1.15,2013-03-23 00:35:00,
2013-03-22 19:41:00,63.5,61.1,29.81,East,82,9.0,11.0,92,0.00,,,0.12,Wunderground v.1.15,2013-03-23 00:41:00,
2013-03-22 19:47:00,63.4,61.0,29.81,East,81,9.0,17.0,92,0.00,,,0.12,Wunderground v.1.15,2013-03-23 00:47:00,
2013-03-22 19:53:00,63.4,61.0,29.81,ENE,65,9.0,17.0,92,0.00,,,0.12,Wunderground v.1.15,2013-03-23 00:53:00,
2013-03-22 19:59:00,63.4,61.0,29.81,ENE,68,9.0,17.0,92,0.00,,,0.12,Wunderground v.1.15,2013-03-23 00:59:00,
2013-03-22 20:04:00,63.5,61.4,29.81,ENE,77,9.0,17.0,93,0.00,,,0.12,Wunderground v.1.15,2013-03-23 01:04:00,
2013-03-22 20:10:00,63.5,61.4,29.81,ENE,72,9.0,17.0,93,0.00,,,0.12,Wunderground v.1.15,2013-03-23 01:10:00,
2013-03-22 20:15:00,63.5,61.4,29.81,ENE,73,10.0,17.0,93,0.00,,,0.12,Wunderground v.1.15,2013-03-23 01:15:00,
2013-03-22 20:21:00,63.5,61.4,29.81,East,83,9.0,17.0,93,0.00,,,0.12,Wunderground v.1.15,2013-03-23 01:21:00,
2013-03-22 20:27:00,63.4,61.3,29.81,ENE,75,9.0,17.0,93,0.00,,,0.12,Wunderground v.1.15,2013-03-23 01:27:00,
2013-03-22 20:32:00,63.5,61.4,29.81,ENE,66,10.0,17.0,93,0.00,,,0.12,Wunderground v.1.15,2013-03-23 01:32:00,
2013-03-22 20:38:00,63.4,61.3,29.81,East,95,10.0,17.0,93,0.00,,,0.12,Wunderground v.1.15,2013-03-23 01:38:00,
2013-03-22 20:43:00,63.4,61.6,29.81,East,79,10.0,17.0,94,0.00,,,0.12,Wunderground v.1.15,2013-03-23 01:43:00,
2013-03-22 20:49:00,63.3,61.5,29.81,East,96,9.0,17.0,94,0.00,,,0.12,Wunderground v.1.15,2013-03-23 01:49:00,
2013-03-22 20:54:00,63.4,61.6,29.81,ENE,58,9.0,17.0,94,0.00,,,0.12,Wunderground v.1.15,2013-03-23 01:54:00,
2013-03-22 20:59:00,63.4,61.6,29.81,East,90,9.0,17.0,94,0.00,,,0.12,Wunderground v.1.15,2013-03-23 01:59:00,
2013-03-22 21:05:00,63.5,61.7,29.82,East,94,9.0,17.0,94,0.00,,,0.12,Wunderground v.1.15,2013-03-23 02:05:00,
2013-03-22 21:11:00,63.6,61.8,29.82,ENE,71,9.0,17.0,94,0.00,,,0.12,Wunderground v.1.15,2013-03-23 02:11:00,
2013-03-22 21:17:00,63.7,61.9,29.82,ESE,102,9.0,17.0,94,0.00,,,0.12,Wunderground v.1.15,2013-03-23 02:17:00,
2013-03-22 21:23:00,63.7,61.9,29.82,ESE,102,9.0,17.0,94,0.00,,,0.12,Wunderground v.1.15,2013-03-23 02:23:00,
2013-03-22 21:28:00,63.7,61.9,29.82,East,84,9.0,17.0,94,0.00,,,0.12,Wunderground v.1.15,2013-03-23 02:28:00,
2013-03-22 21:33:00,63.7,61.9,29.82,ESE,106,9.0,17.0,94,0.00,,,0.12,Wunderground v.1.15,2013-03-23 02:33:00,
2013-03-22 21:39:00,63.7,61.9,29.82,ESE,108,9.0,17.0,94,0.00,,,0.12,Wunderground v.1.15,2013-03-23 02:39:00,
2013-03-22 21:45:00,63.8,62.0,29.83,ESE,120,10.0,17.0,94,0.00,,,0.12,Wunderground v.1.15,2013-03-23 02:45:00,
2013-03-22 21:50:00,63.8,62.0,29.83,ESE,113,10.0,17.0,94,0.00,,,0.12,Wunderground v.1.15,2013-03-23 02:50:00,
2013-03-22 21:56:00,63.8,62.0,29.83,ESE,122,10.0,17.0,94,0.00,,,0.12,Wunderground v.1.15,2013-03-23 02:56:00,
2013-03-22 22:01:00,63.8,62.0,29.83,ENE,77,10.0,11.0,94,0.00,,,0.12,Wunderground v.1.15,2013-03-23 03:01:00,
2013-03-22 22:07:00,63.8,62.0,29.83,East,96,9.0,17.0,94,0.00,,,0.12,Wunderground v.1.15,2013-03-23 03:07:00,
2013-03-22 22:12:00,63.8,62.0,29.83,ENE,67,10.0,17.0,94,0.00,,,0.12,Wunderground v.1.15,2013-03-23 03:12:00,
2013-03-22 22:18:00,63.8,62.0,29.83,SE,132,10.0,17.0,94,0.00,,,0.12,Wunderground v.1.15,2013-03-23 03:18:00,
2013-03-22 22:24:00,63.8,62.0,29.83,East,99,10.0,17.0,94,0.00,,,0.12,Wunderground v.1.15,2013-03-23 03:24:00,
2013-03-22 22:29:00,63.8,62.0,29.83,ESE,107,10.0,17.0,94,0.00,,,0.12,Wunderground v.1.15,2013-03-23 03:29:00,
2013-03-22 22:35:00,63.9,62.1,29.84,East,99,9.0,17.0,94,0.00,,,0.12,Wunderground v.1.15,2013-03-23 03:35:00,
2013-03-22 22:40:00,63.9,62.1,29.84,ESE,117,8.0,8.0,94,0.00,,,0.12,Wunderground v.1.15,2013-03-23 03:40:00,
2013-03-22 22:46:00,63.9,62.1,29.84,ESE,110,8.0,17.0,94,0.00,,,0.12,Wunderground v.1.15,2013-03-23 03:46:00,
2013-03-22 22:52:00,63.9,62.1,29.84,East,90,8.0,17.0,94,0.00,,,0.12,Wunderground v.1.15,2013-03-23 03:52:00,
2013-03-22 22:57:00,63.9,62.1,29.84,ESE,115,8.0,17.0,94,0.00,,,0.12,Wunderground v.1.15,2013-03-23 03:57:00,
2013-03-22 23:00:00,63.9,62.4,29.84,ENE,69,8.0,8.0,95,0.00,,,0.12,Wunderground v.1.15,2013-03-23 04:00:00,
2013-03-22 23:01:00,63.9,62.4,29.84,East,94,8.0,17.0,95,0.00,,,0.12,Wunderground v.1.15,2013-03-23 04:01:00,
2013-03-22 23:02:00,63.9,62.4,29.84,East,94,7.0,17.0,95,0.00,,,0.12,Wunderground v.1.15,2013-03-23 04:02:00,
2013-03-22 23:07:00,63.9,62.4,29.84,ENE,65,7.0,17.0,95,0.00,,,0.12,Wunderground v.1.15,2013-03-23 04:07:00,
2013-03-22 23:13:00,63.9,62.4,29.84,ENE,77,8.0,17.0,95,0.00,,,0.12,Wunderground v.1.15,2013-03-23 04:13:00,
2013-03-22 23:19:00,63.9,62.4,29.84,ESE,110,8.0,17.0,95,0.00,,,0.12,Wunderground v.1.15,2013-03-23 04:19:00,
2013-03-22 23:21:00,63.9,62.4,29.84,East,94,8.0,17.0,95,0.00,,,0.12,Wunderground v.1.15,2013-03-23 04:21:00,
2013-03-22 23:26:00,63.9,62.4,29.84,ESE,110,8.0,17.0,95,0.00,,,0.12,Wunderground v.1.15,2013-03-23 04:26:00,
2013-03-22 23:32:00,63.8,62.3,29.84,ENE,78,7.0,9.0,95,0.00,,,0.12,Wunderground v.1.15,2013-03-23 04:32:00,
2013-03-22 23:37:00,63.8,62.3,29.84,East,88,7.0,17.0,95,0.00,,,0.12,Wunderground v.1.15,2013-03-23 04:37:00,
2013-03-22 23:43:00,63.8,62.3,29.85,ENE,77,7.0,17.0,95,0.00,,,0.12,Wunderground v.1.15,2013-03-23 04:43:00,
2013-03-22 23:49:00,63.7,62.2,29.84,ENE,74,7.0,17.0,95,0.00,,,0.12,Wunderground v.1.15,2013-03-23 04:49:00,
2013-03-22 23:54:00,63.6,62.1,29.84,East,81,7.0,17.0,95,0.00,,,0.12,Wunderground v.1.15,2013-03-23 04:54:00,